FW3942 Weather Reports


time (UTC)temp
F
wind
direction
speed
knots
gust
knots
rain 1hr
in
rain 24hr
in
rain mn
in
humidity
%
barometer
mb
20260504090119 36 303 13.9 20.0 0.02 0.27 0.06 95 978.9
20260504081547 37 261 9.6 13.9 0.03 0.25 0.04 95 977.1
20260504050020 41 54 2.6 7.0 0.00 0.21 0.00 85 975.9
20260504044532 42 84 4.3 10.4 0.00 0.21 0.00 84 976.4
20260504043019 42 113 1.7 13.0 0.00 0.21 0.00 84 976.6
20260504041509 43 122 7.0 13.9 0.00 0.21 0.00 84 976.8
20260504040006 43 124 7.0 13.0 0.00 0.21 0.00 85 977.4
20260504034505 43 161 8.7 12.2 0.00 0.21 0.00 85 977.9
20260504033003 43 231 1.7 12.2 0.00 0.21 0.00 85 978.1
20260504031501 43 235 3.5 12.2 0.00 0.21 0.00 86 978.1
20260504030058 43 49 2.6 13.0 0.00 0.21 0.00 86 978.5
20260504024605 42 53 11.3 19.1 0.00 0.21 0.21 85 978.2
20260504023055 43 86 9.6 19.1 0.00 0.21 0.21 84 979.6
20260504021553 42 36 17.4 26.9 0.00 0.21 0.21 85 980.5
20260504020051 42 255 7.0 20.0 0.00 0.21 0.21 85 981.3
20260504014551 42 47 17.4 37.4 0.00 0.21 0.21 84 980.8
20260504013052 42 112 24.3 50.4 0.00 0.21 0.21 85 980.3
20260504011550 43 59 28.7 46.9 0.00 0.21 0.21 86 981.0
20260504010054 43 125 27.8 41.7 0.02 0.21 0.21 87 981.5
20260504004544 42 115 29.5 53.9 0.02 0.21 0.21 87 981.2
20260504003042 42 84 30.4 50.4 0.03 0.21 0.21 87 981.9
20260504001559 41 72 27.8 44.3 0.03 0.21 0.21 88 983.5
20260504000040 42 94 23.5 42.6 0.02 0.20 0.20 87 984.4
20260503234534 42 59 7.8 32.2 0.02 0.19 0.19 87 987.0
20260503233031 42 47 11.3 24.3 0.03 0.18 0.18 88 988.4
20260503231529 42 87 7.0 27.8 0.05 0.18 0.18 89 990.2
20260503230025 41 132 5.2 19.1 0.06 0.18 0.18 92 992.0
20260503224522 40 35 13.9 20.9 0.06 0.17 0.17 92 992.5
20260503223018 39 41 17.4 26.1 0.07 0.15 0.15 91 993.5
20260503221528 39 8 9.6 13.9 0.07 0.13 0.13 90 994.8
20260503220018 40 347 8.7 13.0 0.06 0.12 0.12 90 994.9
20260503214515 39 323 5.2 11.3 0.04 0.10 0.10 90 995.6
20260503213026 40 34 8.7 27.8 0.02 0.08 0.08 90 995.0
20260503211516 40 43 6.1 22.6 0.02 0.06 0.06 91 996.2
20260503210009 40 17 15.6 24.3 0.04 0.06 0.06 90 996.3
20260503204505 41 8 14.8 20.9 0.05 0.06 0.06 87 997.2
20260503203002 42 18 13.0 20.0 0.06 0.06 0.06 86 998.1
20260503201559 43 11 11.3 14.8 0.04 0.04 0.04 85 999.0
20260503200057 43 45 4.3 11.3 0.02 0.02 0.02 84 999.3
20260503194555 43 49 9.6 16.5 0.02 0.02 0.02 80 1000.5
20260503193054 45 26 5.2 12.2 0.00 0.00 0.00 76 1001.2
20260503191546 46 119 11.3 16.5 0.00 0.00 0.00 71 1002.5
20260503190047 48 104 10.4 18.2 0.00 0.00 0.00 66 1003.0
20260503184544 49 85 13.0 20.9 0.00 0.00 0.00 61 1003.4
20260503183041 50 104 11.3 20.9 0.00 0.00 0.00 53 1004.1
20260503181612 51 89 11.3 21.7 0.00 0.00 0.00 47 1004.2
20260503180041 52 133 8.7 21.7 0.00 0.00 0.00 42 1004.7
20260503174537 52 86 13.0 21.7 0.00 0.00 0.00 41 1004.6
20260503173045 52 79 11.3 18.2 0.00 0.00 0.00 40 1005.7
20260503171530 51 121 10.4 17.4 0.00 0.00 0.00 45 1006.0